Вернуться в каталог

CHINASAT 22

АктивенСвязьGEO
NORAD 26058·PAYLOAD·🇨🇳 China

Запущен Jan 25, 2000 с Xichang Satellite Launch Center

Loading…

TLE

СвежийSource: Space-Track

Эпоха: Sep 14, 2026, 13:28 UTC

1 26058U 00003A   26257.56154476 -.00000079  00000-0  00000-0 0  9991
2 26058  12.6092  31.7197 0004149 277.5212 114.0028  0.97320877 46857

Отслеживайте CHINASAT 22 в реальном времени с AllMySat

Download on the App Store